ATLAS 5 CENTAUR DEB, 43988

Orbit data source: Space-Track

ATLAS 5 CENTAUR DEB, 43988 is space debris in HEO originally from a launch on Wed, 17 Sep 2014 UTC launched from the Air Force Eastern Test Range (AFETR). Debris objects in space refer to the collection of defunct objects orbiting the Earth. Examples of debris include non-operational satellites, rocket bodies, and fragments generated from explosions, collisions, or faulty payload assembly.

Loading next visibility...
Identifier
43988, 2014-055AT
Orbit
HEO
Country
Flag of USUS
Related business
Flag of USUnited Launch Alliance/Lockheed Martin (US)
Manufacturer
Unknown
Mission
Spacecraft
Bus & Motor
Unknown
Mass
Unknown
Launch date (UTC)
2014-09-17 (11 years ago)
Launch vehicle
Unknown
Launch site
Air Force Eastern Test Range (AFETR)
Object type
Payload
Rocket body
Debris
Shape & HBR
Unknown shape, 1.1 m
Radar Cross Section
Small (<0.1 m²)

Expand to show TLE details & history
Last TLE update: 5 days ago

TLE from 5 days ago
0 ATLAS 5 CENTAUR DEB
1 43988U 14055AT  26068.15001624 -.00000102  00000-0  00000-0 0  9992
2 43988  20.0653 147.7443 4775694 158.4303 231.3836  1.87309267 51483
Epoch: 2026-03-09T03:36Z
TLE epoch observation values (Epoch: 2026-03-09T03:36:01.403Z)
Latitude
0.00002°
Longitude
-73.1034°
Altitude
32,239.931 km
Speed
2.511 km/s
True Right ascension
09h 50m 59s
True Declination
0° 00' 00"
Sunlit
Object was in daylight at epoch
Visualization orbit readout
Latitude
Unknown
Longitude
Unknown
Altitude
Unknown
Speed
Unknown
Apparent Right ascension
Unknown
Apparent Declination
Unknown
Sunlit
N/A
Visualization observer readout
Local Sidereal Time
13:38:32
Azimuth
Unknown
Elevation
Unknown
Doppler factor
Unknown
Orbital elements
Apogee altitude
34,699.666 km
Perigee altitude
8,145.919 km
Semi-major axis
27,800.929 km
Eccentricity
0.47757
Inclination
20.0653°
RAAN
147.7443°
Arg. of periapsis
158.4303°
True anomaly
201.55077°
Mean anomaly
231.3836°
Eccentric anomaly
215.49567°
Mean motion
0.46822 °/min
Orbital period
768.86 mins
BSTAR
0
Loading maneuver chart data...
Computing Atmospheric mass density...

Documentation

Showing up to 5 results
|